AFL769 UUEE-ULLI

Flight info

Callsign AFL769
Flight time 1h 2m
Altitude 38000
Route TOKNU3H/24C TOKNU L4 NUDKO T561 ODATI T875 GENPA GENPA1V
Aircraft A20N/M-V/N

Departure

Time 2026-05-04 15:58
Airport Sheremetyevo International Airport (UUEE)

Arrival

Time 2026-05-04 17:01
Airport Pulkovo Airport (ULLI)
Time Latitude Longitude Altitude Speed Heading
2026-05-04 15:27 55.97839 37.41637 638 ft 0 kts 75°
2026-05-04 15:45 55.97839 37.41631 638 ft 2 kts 75°
2026-05-04 15:45 55.97835 37.41605 638 ft 2 kts 75°
2026-05-04 15:46 55.97831 37.41579 638 ft 2 kts 75°
2026-05-04 15:46 55.97827 37.41554 638 ft 2 kts 75°
2026-05-04 15:46 55.97825 37.41528 638 ft 2 kts 108°
2026-05-04 15:46 55.97834 37.41506 638 ft 2 kts 152°
2026-05-04 15:47 55.97840 37.41502 638 ft 1 kts 172°
2026-05-04 15:47 55.97844 37.41500 638 ft 0 kts 165°
2026-05-04 15:51 55.97844 37.41501 638 ft 0 kts 166°
2026-05-04 15:51 55.97842 37.41502 638 ft 0 kts 165°
2026-05-04 15:52 55.97816 37.41514 638 ft 13 kts 164°
2026-05-04 15:52 55.97702 37.41569 638 ft 17 kts 165°
2026-05-04 15:52 55.97610 37.41660 638 ft 15 kts 101°
2026-05-04 15:52 55.97635 37.41850 638 ft 15 kts 75°
2026-05-04 15:53 55.97662 37.42038 638 ft 15 kts 75°
2026-05-04 15:53 55.97691 37.42231 638 ft 16 kts 75°
2026-05-04 15:53 55.97720 37.42426 638 ft 16 kts 75°
2026-05-04 15:53 55.97750 37.42624 638 ft 15 kts 74°
2026-05-04 15:54 55.97752 37.42769 638 ft 7 kts 123°
2026-05-04 15:54 55.97728 37.42796 638 ft 0 kts 163°
2026-05-04 15:56 55.97686 37.42817 638 ft 13 kts 165°
2026-05-04 15:56 55.97607 37.42805 638 ft 8 kts 224°
2026-05-04 15:56 55.97593 37.42755 638 ft 0 kts 253°
2026-05-04 15:57 55.97590 37.42735 638 ft 14 kts 253°
2026-05-04 15:57 55.97490 37.42072 638 ft 93 kts 255°
2026-05-04 15:58 55.97268 37.40586 651 ft 151 kts 254°
2026-05-04 15:58 55.96968 37.38684 1210 ft 160 kts 252°
2026-05-04 15:58 55.96661 37.36837 1975 ft 158 kts 253°
2026-05-04 15:58 55.96360 37.34981 2676 ft 161 kts 253°
2026-05-04 15:59 55.96039 37.32968 3139 ft 177 kts 254°
2026-05-04 15:59 55.95686 37.30734 3617 ft 195 kts 254°
2026-05-04 15:59 55.95307 37.28319 4103 ft 212 kts 255°
2026-05-04 15:59 55.94888 37.25641 4535 ft 234 kts 255°
2026-05-04 16:00 55.94436 37.22760 5139 ft 251 kts 255°
2026-05-04 16:00 55.93956 37.19698 5813 ft 264 kts 255°
2026-05-04 16:00 55.93460 37.16551 6485 ft 268 kts 255°
2026-05-04 16:00 55.92947 37.13304 6877 ft 269 kts 255°
2026-05-04 16:01 55.92439 37.10083 6984 ft 270 kts 255°
2026-05-04 16:01 55.91936 37.06905 6991 ft 269 kts 255°
2026-05-04 16:01 55.91623 37.03603 6987 ft 268 kts 273°
2026-05-04 16:01 55.92061 37.00418 6998 ft 269 kts 296°
2026-05-04 16:02 55.93215 36.97805 7002 ft 272 kts 319°
2026-05-04 16:02 55.94745 36.95815 7007 ft 273 kts 323°
2026-05-04 16:02 55.97890 36.92025 7001 ft 273 kts 324°
2026-05-04 16:03 55.99540 36.90328 6999 ft 275 kts 332°
2026-05-04 16:03 56.01335 36.88996 7133 ft 282 kts 338°
2026-05-04 16:03 56.03185 36.87809 7962 ft 286 kts 332°
2026-05-04 16:03 56.04807 36.85893 9080 ft 279 kts 318°
2026-05-04 16:04 56.06245 36.83608 10023 ft 281 kts 316°
2026-05-04 16:04 56.09259 36.78770 11340 ft 306 kts 317°
2026-05-04 16:04 56.10876 36.76283 12168 ft 310 kts 319°
2026-05-04 16:05 56.12539 36.73782 13047 ft 313 kts 319°
2026-05-04 16:05 56.14212 36.71285 13884 ft 317 kts 319°
2026-05-04 16:05 56.17599 36.66237 15484 ft 323 kts 319°
2026-05-04 16:06 56.19346 36.63631 16269 ft 327 kts 319°
2026-05-04 16:06 56.24052 36.56595 18257 ft 336 kts 319°
2026-05-04 16:07 56.26467 36.52979 19203 ft 340 kts 320°
2026-05-04 16:07 56.31971 36.44705 21212 ft 349 kts 320°
2026-05-04 16:08 56.33834 36.41889 21841 ft 353 kts 318°
2026-05-04 16:08 56.37809 36.30729 23689 ft 361 kts 292°
2026-05-04 16:09 56.39597 36.22166 24800 ft 368 kts 291°
2026-05-04 16:09 56.41414 36.13488 25855 ft 374 kts 292°
2026-05-04 16:10 56.43276 36.04630 26853 ft 379 kts 292°
2026-05-04 16:11 56.46983 35.91981 28230 ft 385 kts 308°
2026-05-04 16:11 56.48687 35.88152 28662 ft 388 kts 310°
2026-05-04 16:12 56.53945 35.76802 29933 ft 395 kts 311°
2026-05-04 16:12 56.59251 35.65248 31050 ft 403 kts 311°
2026-05-04 16:13 56.62854 35.57347 31758 ft 407 kts 311°
2026-05-04 16:13 56.66462 35.49405 32494 ft 409 kts 311°
2026-05-04 16:14 56.70050 35.41484 33362 ft 405 kts 311°
2026-05-04 16:14 56.73633 35.33557 34113 ft 404 kts 310°
2026-05-04 16:15 56.78972 35.21675 35191 ft 401 kts 310°
2026-05-04 16:16 56.82501 35.13808 35816 ft 400 kts 310°
2026-05-04 16:16 56.87803 35.02108 36576 ft 400 kts 313°
2026-05-04 16:17 56.91755 34.94894 36945 ft 403 kts 319°
2026-05-04 16:18 56.98493 34.85601 37429 ft 408 kts 326°
2026-05-04 16:18 57.00863 34.82767 37606 ft 409 kts 326°
2026-05-04 16:19 57.08031 34.74204 37861 ft 413 kts 324°
2026-05-04 16:19 57.12848 34.68425 37868 ft 415 kts 323°
2026-05-04 16:20 57.24929 34.53825 37871 ft 416 kts 323°
2026-05-04 16:22 57.37019 34.39069 37871 ft 416 kts 323°
2026-05-04 16:23 57.51424 34.21287 37855 ft 415 kts 322°
2026-05-04 16:25 57.65798 34.03414 37844 ft 415 kts 322°
2026-05-04 16:26 57.82574 33.82353 37827 ft 415 kts 322°
2026-05-04 16:28 57.94019 33.66134 37681 ft 413 kts 318°
2026-05-04 16:28 58.00698 33.55944 37230 ft 412 kts 318°
2026-05-04 16:29 58.09484 33.42503 36228 ft 403 kts 318°
2026-05-04 16:30 58.15985 33.32536 35483 ft 403 kts 317°
2026-05-04 16:31 58.20335 33.25795 34869 ft 404 kts 317°
2026-05-04 16:31 58.26867 33.15648 33273 ft 406 kts 317°
2026-05-04 16:32 58.33470 33.05356 31357 ft 410 kts 317°
2026-05-04 16:33 58.37809 32.98574 30453 ft 402 kts 317°
2026-05-04 16:33 58.42097 32.91844 29566 ft 395 kts 317°
2026-05-04 16:34 58.46321 32.85185 28682 ft 389 kts 317°
2026-05-04 16:34 58.48385 32.81920 28250 ft 386 kts 317°
2026-05-04 16:35 58.54516 32.72201 26960 ft 377 kts 317°
2026-05-04 16:35 58.60460 32.62743 25694 ft 368 kts 317°
2026-05-04 16:36 58.62416 32.59621 25275 ft 365 kts 317°
2026-05-04 16:36 58.66299 32.53411 24434 ft 360 kts 317°
2026-05-04 16:37 58.70109 32.47301 23601 ft 356 kts 317°
2026-05-04 16:37 58.71985 32.44285 23189 ft 353 kts 317°
2026-05-04 16:37 58.75720 32.38263 22362 ft 349 kts 318°
2026-05-04 16:38 58.79412 32.32280 21543 ft 345 kts 317°
2026-05-04 16:39 58.84766 32.23561 20343 ft 339 kts 317°
2026-05-04 16:39 58.88337 32.17741 19541 ft 335 kts 317°
2026-05-04 16:40 58.91880 32.11959 18745 ft 330 kts 317°
2026-05-04 16:40 58.95362 32.06263 17961 ft 325 kts 317°
2026-05-04 16:41 58.98797 32.00629 17184 ft 321 kts 317°
2026-05-04 16:41 59.03849 31.92320 16035 ft 314 kts 316°
2026-05-04 16:42 59.08832 31.84075 14905 ft 307 kts 316°
2026-05-04 16:43 59.11998 31.78532 14156 ft 302 kts 313°
2026-05-04 16:43 59.15019 31.72849 13428 ft 298 kts 313°
2026-05-04 16:43 59.16505 31.70037 13065 ft 296 kts 313°
2026-05-04 16:44 59.22326 31.58970 11627 ft 288 kts 313°
2026-05-04 16:45 59.25186 31.53510 10910 ft 285 kts 313°
2026-05-04 16:46 59.29393 31.45455 9860 ft 277 kts 313°
2026-05-04 16:46 59.32054 31.40352 9594 ft 259 kts 313°
2026-05-04 16:47 59.34634 31.35384 8958 ft 258 kts 312°
2026-05-04 16:47 59.37161 31.30484 8348 ft 254 kts 311°
2026-05-04 16:48 59.40901 31.23217 7460 ft 248 kts 312°
2026-05-04 16:48 59.42124 31.20853 7165 ft 247 kts 312°
2026-05-04 16:49 59.44568 31.16103 6569 ft 244 kts 312°
2026-05-04 16:49 59.46973 31.11418 5986 ft 241 kts 312°
2026-05-04 16:50 59.49324 31.06831 5415 ft 234 kts 313°
2026-05-04 16:50 59.51624 31.02290 4923 ft 230 kts 311°
2026-05-04 16:51 59.53734 30.97549 4853 ft 232 kts 308°
2026-05-04 16:51 59.54799 30.95119 4731 ft 232 kts 308°
2026-05-04 16:51 59.56924 30.90256 4610 ft 230 kts 308°
2026-05-04 16:52 59.58881 30.85780 4586 ft 202 kts 307°
2026-05-04 16:52 59.59793 30.83682 4599 ft 201 kts 308°
2026-05-04 16:53 59.61602 30.79497 4603 ft 198 kts 309°
2026-05-04 16:53 59.64263 30.73373 4361 ft 193 kts 309°
2026-05-04 16:54 59.65151 30.71324 4032 ft 195 kts 309°
2026-05-04 16:55 59.69206 30.64312 2965 ft 194 kts 323°
2026-05-04 16:55 59.71377 30.61299 2498 ft 177 kts 323°
2026-05-04 16:56 59.73090 30.58928 2462 ft 134 kts 323°
2026-05-04 16:56 59.74893 30.54878 2489 ft 133 kts 294°
2026-05-04 16:57 59.75236 30.53164 2490 ft 133 kts 293°
2026-05-04 16:57 59.75859 30.49690 2267 ft 133 kts 290°
2026-05-04 16:58 59.76662 30.44412 1755 ft 132 kts 289°
2026-05-04 16:58 59.76917 30.42670 1583 ft 132 kts 289°
2026-05-04 16:59 59.77424 30.39205 1225 ft 128 kts 289°
2026-05-04 17:00 59.78422 30.32407 544 ft 128 kts 289°
2026-05-04 17:00 59.79164 30.27328 88 ft 117 kts 289°
2026-05-04 17:01 59.79372 30.26010 85 ft 35 kts 285°
2026-05-04 17:01 59.79493 30.25564 84 ft 10 kts 66°
2026-05-04 17:02 59.79518 30.25757 86 ft 0 kts 76°
2026-05-04 17:03 59.79518 30.25760 86 ft 3 kts 76°
2026-05-04 17:03 59.79582 30.25995 87 ft 11 kts 21°
2026-05-04 17:04 59.79741 30.26116 87 ft 13 kts 15°
2026-05-04 17:04 59.79928 30.26226 87 ft 14 kts 15°
2026-05-04 17:05 59.80137 30.26349 85 ft 16 kts 16°
2026-05-04 17:05 59.80196 30.26365 84 ft 1 kts 337°
2026-05-04 17:06 59.80223 30.26304 83 ft 0 kts 288°
2026-05-04 17:06 59.80224 30.26298 83 ft 0 kts 287°